"startDT [UTC]","vpos","CH4 [ppm]","stdev(CH4) [ppm]","CO2 [ppm]","stdev(CO2) [ppm]","H2O_reported [%]","stdev(H2O_reported)","CavityPressure [torr]","CavityTemp [C]","OutletValve","CH4_dry [ppm]","CO2_dry [ppm]","DasTemp [C]","EtalonTemp [C]","WarmBoxTemp [C]","MPVPosition","T_ECpre [C]","T_EC1 [C]","T_EC2 [C]","p_inlet [hPa]","p_in [hPa]","p_out [hPa]","T_inlet [C]","RH_inlet [%]","dwpt_inlet [C]","T_vent [C]","RH_vent [%]","dwpt_vent [C]","flow_vent [l min-1]","flow_inlet [l min-1]","dwpt_sample [C]","T_room [C]"
2015-02-12 00:00:00,3.0,1.88218,0.02792,399.056,1.710,0.0420,0.0775,140.237,45.000,30951.65986,1.88445,399.386,33.041,45.067,44.999,0.00,0.10,-272.69,-272.75,-15,510,-1,20.3,8.3,-14.6,20.5,6.1,-18.1,5.73,2.40,-13.7,25.4
2015-02-12 00:01:00,3.0,1.87612,0.00030,397.248,0.051,0.0088,0.0017,140.006,45.000,31147.92608,1.87624,397.295,33.014,45.067,45.000,0.00,0.10,-272.68,-272.75,-15,510,-1,20.2,8.2,-14.7,20.5,6.1,-18.1,5.73,2.40,-13.7,25.3
2015-02-12 00:02:00,3.0,1.87607,0.00037,397.287,0.065,0.0082,0.0016,140.005,45.000,31203.83194,1.87624,397.321,32.997,45.068,45.000,0.00,0.10,-272.69,-272.75,-15,510,-1,20.2,8.2,-14.8,20.5,6.1,-18.1,5.73,2.39,-13.7,25.4
2015-02-12 00:03:00,3.0,1.87606,0.00052,397.527,0.048,0.0073,0.0018,140.002,45.000,31249.79066,1.87620,397.558,32.994,45.068,45.001,0.00,0.10,-272.69,-272.75,-15,510,-1,20.3,8.2,-14.8,20.5,6.1,-18.1,5.73,2.41,-13.8,25.4
2015-02-12 00:04:00,3.0,1.87573,0.00033,397.567,0.023,0.0061,0.0017,140.003,45.000,31287.26711,1.87584,397.597,32.995,45.068,45.001,0.00,0.10,-272.68,-272.74,-15,510,-1,20.3,8.2,-14.8,20.6,6.1,-18.1,5.73,2.42,-13.8,25.5
2015-02-12 00:05:00,3.0,1.87592,0.00033,397.611,0.032,0.0047,0.0019,140.002,45.001,31318.95156,1.87602,397.633,33.000,45.069,45.001,0.00,0.10,-272.69,-272.75,-15,510,-2,20.3,8.1,-14.8,20.6,6.1,-18.1,5.73,2.45,-13.7,25.5
2015-02-12 00:06:00,3.0,1.87589,0.00031,397.612,0.032,0.0032,0.0024,140.004,45.001,31347.60049,1.87593,397.627,33.005,45.069,45.001,0.00,0.10,-272.69,-272.75,-15,510,-2,20.4,8.2,-14.8,20.6,6.1,-18.0,5.73,2.46,-13.8,25.6
2015-02-12 00:07:00,3.0,1.87588,0.00029,397.618,0.028,0.0030,0.0021,140.001,45.001,31371.82143,1.87595,397.632,33.031,45.068,45.001,0.00,0.10,-272.69,-272.74,-15,510,-1,20.4,8.2,-14.7,20.6,6.1,-18.0,5.73,2.44,-13.8,25.6
2015-02-12 00:08:00,3.0,1.87588,0.00044,397.641,0.029,0.0023,0.0017,140.003,45.000,31392.21903,1.87590,397.652,33.063,45.068,45.001,0.00,0.10,-272.68,-272.74,-15,510,-2,20.4,8.1,-14.7,20.7,6.1,-18.0,5.73,2.41,-13.8,25.6
2015-02-12 00:09:00,3.0,1.87580,0.00033,397.647,0.039,0.0012,0.0015,140.002,45.000,31410.83607,1.87583,397.653,33.063,45.068,45.000,0.00,0.10,-272.69,-272.75,-15,510,-1,20.5,8.1,-14.8,20.7,6.1,-18.0,5.73,2.40,-13.8,25.6
2015-02-12 00:10:00,3.0,1.87591,0.00039,397.656,0.026,0.0012,0.0021,140.000,45.000,31423.59934,1.87594,397.661,33.102,45.068,45.000,0.00,0.10,-272.68,-272.74,-15,510,-1,20.5,8.1,-14.8,20.7,6.1,-18.0,5.73,2.40,-13.7,25.6
2015-02-12 00:11:00,3.0,1.87626,0.00038,397.654,0.015,0.0015,0.0014,140.000,45.000,31435.79714,1.87628,397.661,33.110,45.068,45.000,0.00,0.10,-272.69,-272.74,-15,511,-1,20.5,8.1,-14.8,20.7,6.1,-18.0,5.73,2.40,-13.7,25.7
2015-02-12 00:12:00,3.0,1.87609,0.00038,397.636,0.035,0.0008,0.0015,140.001,45.000,31446.92521,1.87608,397.640,33.074,45.067,44.999,0.00,0.10,-272.68,-272.74,-15,511,-1,20.5,8.0,-14.8,20.7,6.1,-17.9,5.73,2.41,-13.7,25.7
2015-02-12 00:13:00,3.0,1.87592,0.00033,397.631,0.026,0.0012,0.0017,140.002,45.000,31457.85085,1.87597,397.636,33.062,45.067,44.999,0.00,0.10,-272.69,-272.75,-15,511,-1,20.6,8.1,-14.7,20.7,6.1,-17.9,5.73,2.41,-13.7,25.7
2015-02-12 00:14:00,3.0,1.87605,0.00036,397.657,0.043,0.0011,0.0019,139.998,45.000,31463.38095,1.87606,397.662,33.022,45.067,45.000,0.00,0.10,-272.69,-272.74,-15,511,-1,20.6,8.0,-14.8,20.7,6.1,-17.9,5.73,2.42,-13.6,25.7
2015-02-12 00:15:00,3.0,1.87606,0.00036,397.664,0.026,0.0010,0.0018,140.002,45.000,31469.70765,1.87608,397.669,32.999,45.067,45.000,0.00,0.10,-272.69,-272.74,-15,511,-1,20.6,8.0,-14.8,20.7,6.1,-17.9,5.73,2.42,-13.6,25.6
2015-02-12 00:16:00,3.0,1.87623,0.00036,397.662,0.028,0.0006,0.0015,140.000,45.000,31472.20431,1.87622,397.665,32.960,45.068,45.000,0.00,0.10,-272.69,-272.75,-15,511,-1,20.6,8.1,-14.7,20.7,6.1,-17.9,5.73,2.43,-13.6,25.5
2015-02-12 00:17:00,3.0,1.87608,0.00034,397.669,0.037,0.0003,0.0021,139.999,44.999,31477.80395,1.87610,397.669,32.922,45.068,45.000,0.00,0.10,-272.69,-272.75,-15,512,-1,20.6,8.1,-14.7,20.7,6.1,-17.9,5.73,2.43,-13.6,25.4
2015-02-12 00:18:00,3.0,1.87636,0.00033,397.667,0.039,-0.0003,0.0018,139.999,45.000,31480.05700,1.87634,397.667,32.879,45.068,45.000,0.00,0.10,-272.69,-272.74,-15,512,-1,20.6,8.1,-14.7,20.7,6.1,-17.9,5.73,2.44,-13.6,25.5
2015-02-12 00:19:00,3.0,1.87616,0.00032,397.684,0.026,0.0006,0.0025,139.998,45.000,31484.99737,1.87620,397.686,32.886,45.068,45.001,0.00,0.10,-272.69,-272.75,-15,512,-1,20.6,8.1,-14.6,20.7,6.1,-17.9,5.73,2.44,-13.6,25.5
2015-02-12 00:20:00,0.0,1.90791,0.01413,401.760,2.317,0.2012,0.0946,139.620,45.000,28147.79150,1.91010,402.605,32.907,45.069,45.001,0.00,0.10,-272.69,-272.74,-15,14,-1,20.7,8.1,-14.6,20.7,6.1,-17.9,5.73,2.51,-13.6,25.6
2015-02-12 00:21:00,0.0,1.91351,0.00037,402.690,0.039,0.2571,0.0017,139.999,45.001,27957.11464,1.91840,403.942,32.934,45.069,45.001,0.00,0.10,-272.69,-272.74,-15,14,-1,20.7,8.1,-14.7,20.8,6.1,-17.9,5.73,2.50,-13.6,25.6
2015-02-12 00:22:00,0.0,1.91334,0.00043,402.691,0.029,0.2598,0.0021,139.996,45.000,27907.04532,1.91827,403.957,32.928,45.068,45.001,0.00,0.10,-272.69,-272.75,-15,14,-1,20.7,8.0,-14.7,20.8,6.1,-17.9,5.73,2.46,-13.6,25.6
2015-02-12 00:23:00,0.0,1.91348,0.00047,402.654,0.044,0.2616,0.0019,139.998,45.000,27865.90004,1.91846,403.931,32.933,45.068,45.000,0.00,0.30,-270.98,-272.10,-15,14,-1,20.7,8.1,-14.6,20.8,6.1,-17.9,5.42,2.35,-16.0,25.7
2015-02-12 00:24:00,0.0,1.91332,0.00045,402.639,0.035,0.2614,0.0017,139.999,45.000,27832.86520,1.91824,403.913,32.930,45.068,45.000,0.00,0.10,-272.68,-272.75,-15,14,-1,20.7,8.1,-14.6,20.8,6.1,-17.9,5.73,2.40,-13.6,25.6
2015-02-12 00:25:00,0.0,1.91313,0.00050,402.637,0.033,0.2621,0.0024,139.997,45.000,27806.80661,1.91812,403.914,32.917,45.068,45.000,0.00,0.10,-272.68,-272.74,-15,14,-1,20.7,8.1,-14.6,20.8,6.1,-17.9,5.73,2.41,-13.6,25.6
2015-02-12 00:26:00,0.0,1.91316,0.00035,402.619,0.031,0.2596,0.0026,139.999,45.000,27782.65822,1.91809,403.885,32.902,45.068,45.000,0.00,0.10,-272.69,-272.74,-15,14,-1,20.7,8.0,-14.7,20.8,6.1,-17.9,5.73,2.41,-13.6,25.5
2015-02-12 00:27:00,0.0,1.91291,0.00044,402.614,0.032,0.2638,0.0022,140.001,45.000,27764.44599,1.91791,403.900,32.913,45.068,45.000,0.00,0.10,-272.68,-272.75,-15,14,-1,20.7,8.1,-14.6,20.8,6.1,-17.9,5.73,2.42,-13.6,25.5
2015-02-12 00:28:00,0.0,1.91293,0.00034,402.600,0.033,0.2626,0.0024,139.998,45.000,27746.55081,1.91788,403.879,32.910,45.067,45.000,0.00,0.10,-272.68,-272.74,-15,15,-1,20.7,8.1,-14.6,20.8,6.1,-17.9,5.73,2.41,-13.6,25.5
2015-02-12 00:29:00,0.0,1.91302,0.00044,402.619,0.021,0.2638,0.0024,140.001,45.000,27731.57543,1.91805,403.906,32.883,45.067,44.999,0.00,0.10,-272.69,-272.75,-15,15,-1,20.7,8.1,-14.6,20.8,6.1,-17.9,5.73,2.42,-13.6,25.5
2015-02-12 00:30:00,0.0,1.91277,0.00040,402.603,0.027,0.2619,0.0021,140.001,45.000,27718.03684,1.91772,403.881,32.875,45.067,45.000,0.00,0.10,-272.68,-272.75,-15,14,-1,20.7,8.0,-14.7,20.8,6.1,-17.9,5.73,2.42,-13.5,25.5
2015-02-12 00:31:00,0.0,1.91306,0.00050,402.545,0.037,0.2640,0.0021,140.000,45.000,27705.59708,1.91803,403.832,32.875,45.067,45.000,0.00,0.10,-272.68,-272.75,-15,14,-1,20.7,8.1,-14.6,20.8,6.1,-17.9,5.73,2.42,-13.5,25.5
2015-02-12 00:32:00,0.0,1.91300,0.00028,402.570,0.019,0.2624,0.0019,140.001,45.000,27695.30562,1.91801,403.850,32.875,45.068,45.000,0.00,0.10,-272.69,-272.75,-15,14,-1,20.7,8.0,-14.7,20.8,6.1,-17.9,5.73,2.42,-13.5,25.5
2015-02-12 00:33:00,0.0,1.91337,0.00051,402.586,0.033,0.2621,0.0023,140.000,45.000,27687.86381,1.91832,403.862,32.875,45.067,45.000,0.00,0.10,-272.69,-272.75,-15,14,-1,20.7,8.0,-14.7,20.8,6.1,-17.9,5.73,2.42,-13.5,25.5
2015-02-12 00:34:00,0.0,1.91321,0.00038,402.589,0.028,0.2636,0.0012,139.997,45.000,27681.92877,1.91821,403.875,32.875,45.068,45.000,0.00,0.10,-272.69,-272.74,-15,15,-1,20.7,8.1,-14.6,20.8,6.1,-17.9,5.73,2.44,-13.6,25.5
2015-02-12 00:35:00,0.0,1.91310,0.00034,402.597,0.037,0.2629,0.0016,140.000,45.000,27679.76137,1.91808,403.879,32.876,45.068,45.000,0.00,0.10,-272.69,-272.74,-15,15,-1,20.7,8.1,-14.6,20.8,6.1,-17.9,5.73,2.45,-13.6,25.6
2015-02-12 00:36:00,0.0,1.91307,0.00025,402.597,0.036,0.2639,0.0015,139.998,45.000,27676.91694,1.91806,403.883,32.875,45.068,45.000,0.00,0.10,-272.69,-272.74,-15,15,-1,20.7,8.1,-14.6,20.8,6.1,-17.9,5.73,2.47,-13.6,25.6
2015-02-12 00:37:00,0.0,1.91306,0.00028,402.581,0.033,0.2631,0.0020,140.001,45.000,27674.04895,1.91805,403.862,32.898,45.068,45.000,0.00,0.10,-272.68,-272.75,-15,15,-1,20.7,8.0,-14.7,20.9,6.1,-17.8,5.73,2.45,-13.6,25.7
2015-02-12 00:38:00,0.0,1.91290,0.00033,402.596,0.041,0.2627,0.0016,140.001,45.000,27672.34207,1.91790,403.879,32.907,45.068,45.000,0.00,0.10,-272.68,-272.75,-15,15,-2,20.7,8.0,-14.7,20.9,6.1,-17.8,5.73,2.43,-13.6,25.7
2015-02-12 00:39:00,0.0,1.91294,0.00041,402.583,0.045,0.2650,0.0016,139.998,45.000,27667.81045,1.91795,403.874,32.884,45.068,45.000,0.00,0.10,-272.68,-272.75,-15,15,-2,20.7,8.1,-14.6,20.9,6.1,-17.8,5.73,2.41,-13.6,25.7
2015-02-12 00:40:00,0.0,1.91299,0.00030,402.576,0.035,0.2641,0.0016,140.000,45.000,27666.79113,1.91796,403.864,32.874,45.068,45.001,0.00,0.10,-272.69,-272.75,-15,15,-2,20.7,8.1,-14.6,20.9,6.1,-17.8,5.73,2.40,-13.6,25.7
2015-02-12 00:41:00,0.0,1.91293,0.00033,402.547,0.027,0.2636,0.0018,140.003,45.000,27665.55546,1.91795,403.833,32.863,45.068,45.001,0.00,0.10,-272.68,-272.75,-15,15,-2,20.7,8.1,-14.6,20.9,6.1,-17.8,5.73,2.40,-13.6,25.6
2015-02-12 00:42:00,0.0,1.91277,0.00043,402.566,0.035,0.2613,0.0022,139.999,45.000,27664.39628,1.91775,403.840,32.837,45.069,45.001,0.00,0.10,-272.69,-272.75,-15,15,-1,20.7,8.0,-14.7,20.8,6.1,-17.9,5.73,2.41,-13.6,25.6
2015-02-12 00:43:00,0.0,1.91255,0.00048,402.595,0.030,0.2601,0.0023,139.999,45.000,27662.05701,1.91747,403.862,32.843,45.068,45.001,0.00,0.10,-272.69,-272.75,-15,15,-1,20.7,8.0,-14.8,20.9,6.1,-17.8,5.73,2.43,-13.6,25.6
2015-02-12 00:44:00,0.0,1.91263,0.00041,402.612,0.024,0.2610,0.0020,140.000,45.000,27659.47886,1.91759,403.885,32.865,45.068,45.000,0.00,0.10,-272.68,-272.75,-15,15,-1,20.7,8.0,-14.8,20.9,6.1,-17.8,5.73,2.42,-13.6,25.6
2015-02-12 00:45:00,0.0,1.91245,0.00035,402.568,0.037,0.2607,0.0020,140.000,45.000,27657.50243,1.91742,403.840,32.851,45.068,45.000,0.00,0.10,-272.69,-272.74,-15,15,-1,20.7,8.0,-14.8,20.9,6.1,-17.8,5.73,2.43,-13.6,25.5
2015-02-12 00:46:00,0.0,1.91233,0.00035,402.568,0.038,0.2615,0.0017,140.003,45.000,27657.50316,1.91727,403.842,32.833,45.068,45.000,0.00,0.10,-272.69,-272.75,-15,15,-1,20.7,8.0,-14.8,20.9,6.1,-17.8,5.73,2.43,-13.6,25.5
2015-02-12 00:47:00,0.0,1.91264,0.00040,402.568,0.044,0.2617,0.0027,140.001,45.000,27653.15019,1.91760,403.843,32.813,45.068,45.000,0.00,0.10,-272.69,-272.74,-15,15,-1,20.7,8.0,-14.8,20.9,6.1,-17.8,5.73,2.43,-13.6,25.6
2015-02-12 00:48:00,0.0,1.91235,0.00038,402.604,0.022,0.2608,0.0012,139.998,45.000,27650.86687,1.91727,403.876,32.837,45.068,45.000,0.00,0.10,-272.68,-272.74,-15,15,-1,20.7,8.0,-14.8,20.9,6.1,-17.8,5.73,2.43,-13.5,25.5
2015-02-12 00:49:00,0.0,1.91222,0.00046,402.558,0.038,0.2615,0.0025,139.999,45.000,27650.30313,1.91724,403.831,32.856,45.068,45.000,0.00,0.10,-272.69,-272.75,-15,15,-1,20.7,8.0,-14.7,20.9,6.1,-17.8,5.73,2.44,-13.5,25.6
2015-02-12 00:50:00,0.0,1.91231,0.00041,402.587,0.037,0.2605,0.0031,139.999,45.000,27646.54146,1.91721,403.858,32.833,45.067,44.999,0.00,0.10,-272.69,-272.75,-15,15,-1,20.7,8.0,-14.8,20.9,6.1,-17.8,5.73,2.43,-13.5,25.5
2015-02-12 00:51:00,0.0,1.91255,0.00033,402.555,0.040,0.2622,0.0014,139.999,45.000,27646.70304,1.91747,403.834,32.814,45.067,44.999,0.00,0.10,-272.68,-272.74,-15,15,-1,20.7,8.0,-14.7,20.9,6.1,-17.8,5.73,2.44,-13.5,25.4
2015-02-12 00:52:00,0.0,1.91245,0.00034,402.559,0.037,0.2618,0.0024,140.001,45.000,27645.88575,1.91743,403.834,32.765,45.067,45.000,0.00,0.10,-272.68,-272.74,-15,15,-2,20.7,8.0,-14.8,20.8,6.1,-17.8,5.73,2.44,-13.5,25.4
2015-02-12 00:53:00,0.0,1.91235,0.00042,402.597,0.022,0.2619,0.0013,140.003,45.000,27645.36136,1.91729,403.872,32.749,45.068,45.000,0.00,0.10,-272.69,-272.75,-15,15,-1,20.6,8.0,-14.8,20.8,6.1,-17.8,5.73,2.44,-13.5,25.4
2015-02-12 00:54:00,0.0,1.91234,0.00040,402.579,0.026,0.2587,0.0028,140.000,45.000,27643.72930,1.91724,403.840,32.750,45.068,45.000,0.00,0.10,-272.69,-272.75,-15,15,-1,20.6,8.0,-14.8,20.8,6.1,-17.8,5.73,2.44,-13.5,25.5
2015-02-12 00:55:00,0.0,1.91230,0.00043,402.584,0.034,0.2612,0.0017,140.001,45.000,27643.20616,1.91725,403.857,32.749,45.068,45.000,0.00,0.10,-272.68,-272.75,-15,15,-1,20.6,8.0,-14.8,20.8,6.1,-17.9,5.73,2.43,-13.5,25.5
2015-02-12 00:56:00,0.0,1.91237,0.00044,402.621,0.033,0.2612,0.0018,139.998,45.000,27640.71012,1.91735,403.895,32.750,45.068,45.000,0.00,0.10,-272.69,-272.76,-15,15,-1,20.5,8.1,-14.8,20.7,6.1,-17.9,5.73,2.42,-13.5,25.4
2015-02-12 00:57:00,0.0,1.91258,0.00040,402.631,0.031,0.2606,0.0021,140.000,45.000,27640.42571,1.91750,403.901,32.750,45.068,45.000,0.00,0.10,-272.69,-272.75,-15,15,-1,20.5,8.0,-14.8,20.7,6.1,-17.9,5.73,2.40,-13.5,25.4
2015-02-12 00:58:00,0.0,1.91246,0.00027,402.612,0.033,0.2600,0.0017,140.002,45.000,27642.92524,1.91739,403.880,32.754,45.068,45.000,0.00,0.10,-272.68,-272.75,-15,15,-1,20.5,8.0,-14.8,20.7,6.1,-17.9,5.73,2.39,-13.6,25.5
2015-02-12 00:59:00,0.0,1.91239,0.00036,402.625,0.035,0.2618,0.0022,140.001,45.000,27643.33630,1.91733,403.901,32.775,45.068,45.000,0.00,0.10,-272.69,-272.74,-16,15,-1,20.5,8.0,-14.8,20.7,6.1,-17.9,5.73,2.40,-13.6,25.5
2015-02-12 01:00:00,0.0,1.91263,0.00040,402.611,0.026,0.2605,0.0025,140.003,45.000,27645.41636,1.91758,403.880,32.817,45.068,45.000,0.00,0.10,-272.69,-272.75,-15,15,-1,20.5,8.0,-14.8,20.7,6.1,-17.9,5.73,2.42,-13.6,25.5
2015-02-12 01:01:00,0.0,1.91260,0.00050,402.620,0.041,0.2629,0.0019,140.002,45.000,27647.14536,1.91757,403.902,32.864,45.068,45.000,0.00,0.10,-272.69,-272.74,-15,15,-2,20.6,8.1,-14.7,20.8,6.1,-17.9,5.73,2.45,-13.6,25.6
2015-02-12 01:02:00,0.0,1.91246,0.00040,402.619,0.021,0.2616,0.0021,140.001,45.000,27649.58286,1.91744,403.894,32.876,45.067,45.000,0.00,0.10,-272.69,-272.74,-16,15,-2,20.6,8.0,-14.8,20.8,6.1,-17.8,5.73,2.48,-13.6,25.6
2015-02-12 01:03:00,0.0,1.91256,0.00055,402.646,0.029,0.2615,0.0029,139.999,45.001,27648.70852,1.91749,403.921,32.914,45.068,45.000,0.00,0.10,-272.69,-272.75,-16,15,-2,20.6,8.0,-14.9,20.8,6.1,-17.8,5.73,2.46,-13.6,25.7
2015-02-12 01:04:00,0.0,1.91246,0.00025,402.631,0.027,0.2600,0.0014,139.998,45.000,27649.10467,1.91742,403.900,32.938,45.068,45.000,0.00,0.10,-272.68,-272.75,-16,15,-2,20.6,8.0,-14.8,20.8,6.1,-17.8,5.73,2.44,-13.6,25.7
2015-02-12 01:05:00,0.0,1.91232,0.00039,402.613,0.026,0.2619,0.0028,139.998,45.001,27650.97491,1.91729,403.890,32.944,45.068,45.000,0.00,0.10,-272.68,-272.75,-16,15,-1,20.6,8.0,-14.8,20.8,6.1,-17.8,5.73,2.45,-13.6,25.7
2015-02-12 01:06:00,0.0,1.91216,0.00029,402.612,0.031,0.2591,0.0022,140.001,45.000,27652.08787,1.91707,403.875,32.973,45.067,45.000,0.00,0.10,-272.69,-272.74,-16,15,-2,20.6,8.0,-14.9,20.8,6.1,-17.8,5.73,2.41,-13.6,25.8
2015-02-12 01:07:00,0.0,1.91232,0.00039,402.585,0.026,0.2606,0.0018,140.002,45.000,27652.37675,1.91724,403.856,32.998,45.067,45.000,0.00,0.10,-272.69,-272.75,-16,15,-1,20.6,8.0,-14.8,20.8,6.2,-17.8,5.73,2.42,-13.6,25.8
2015-02-12 01:08:00,0.0,1.91248,0.00038,402.618,0.026,0.2596,0.0024,140.004,45.000,27651.16282,1.91739,403.882,33.002,45.067,45.000,0.00,0.10,-272.69,-272.74,-16,15,-1,20.6,8.0,-14.9,20.8,6.2,-17.8,5.73,2.42,-13.6,25.8
2015-02-12 01:09:00,0.0,1.91266,0.00037,402.606,0.031,0.2620,0.0019,140.000,45.000,27648.16084,1.91763,403.883,33.001,45.067,45.000,0.00,0.10,-272.69,-272.74,-16,15,-2,20.6,8.0,-14.8,20.8,6.2,-17.8,5.73,2.42,-13.6,25.8
2015-02-12 01:10:00,0.0,1.91261,0.00034,402.616,0.032,0.2602,0.0023,139.999,45.000,27646.05440,1.91755,403.884,32.995,45.067,44.999,0.00,0.10,-272.69,-272.76,-16,15,-2,20.6,8.0,-14.8,20.8,6.2,-17.8,5.73,2.43,-13.6,25.8
2015-02-12 01:11:00,0.0,1.91241,0.00033,402.625,0.035,0.2605,0.0021,140.001,45.000,27644.63472,1.91731,403.894,32.968,45.067,44.999,0.00,0.10,-272.69,-272.75,-16,15,-2,20.6,8.0,-14.8,20.8,6.2,-17.8,5.73,2.43,-13.5,25.8
2015-02-12 01:12:00,0.0,1.91243,0.00029,402.623,0.030,0.2611,0.0026,139.997,45.000,27642.22488,1.91741,403.896,32.931,45.067,44.999,0.00,0.10,-272.68,-272.74,-16,15,-2,20.6,8.0,-14.8,20.8,6.2,-17.8,5.73,2.43,-13.5,25.8
2015-02-12 01:13:00,0.0,1.91248,0.00037,402.617,0.032,0.2592,0.0024,140.000,44.999,27641.68275,1.91740,403.880,32.876,45.067,45.000,0.00,0.10,-272.69,-272.75,-15,15,-2,20.6,8.0,-14.9,20.8,6.2,-17.8,5.73,2.43,-13.5,25.6
2015-02-12 01:14:00,0.0,1.91223,0.00049,402.626,0.031,0.2612,0.0017,140.000,45.000,27640.64586,1.91716,403.900,32.852,45.067,45.000,0.00,0.10,-272.69,-272.75,-16,15,-2,20.5,8.0,-14.8,20.8,6.2,-17.8,5.73,2.43,-13.4,25.6
2015-02-12 01:15:00,0.0,1.91238,0.00033,402.662,0.020,0.2598,0.0024,140.000,45.000,27638.01102,1.91731,403.928,32.816,45.068,45.000,0.00,0.10,-272.69,-272.74,-16,14,-2,20.5,8.0,-14.9,20.8,6.2,-17.8,5.73,2.43,-13.4,25.6
2015-02-12 01:16:00,0.0,1.91251,0.00033,402.650,0.039,0.2596,0.0022,140.003,45.000,27638.92517,1.91742,403.915,32.774,45.068,45.001,0.00,0.10,-272.69,-272.75,-15,15,-2,20.4,8.0,-14.9,20.7,6.2,-17.8,5.73,2.45,-13.5,25.5
2015-02-12 01:17:00,0.0,1.91229,0.00032,402.652,0.030,0.2594,0.0027,139.999,45.000,27638.44659,1.91721,403.917,32.750,45.068,45.001,0.00,0.10,-272.69,-272.75,-15,15,-1,20.4,8.0,-14.9,20.7,6.2,-17.8,5.73,2.44,-13.5,25.5
2015-02-12 01:18:00,0.0,1.91250,0.00026,402.668,0.039,0.2571,0.0024,140.001,45.000,27640.60481,1.91736,403.921,32.750,45.068,45.001,0.00,0.10,-272.68,-272.74,-16,15,-2,20.4,8.0,-15.0,20.7,6.2,-17.8,5.73,2.45,-13.5,25.5
2015-02-12 01:19:00,0.0,1.91243,0.00045,402.681,0.039,0.2595,0.0027,139.999,45.000,27642.30690,1.91736,403.946,32.747,45.068,45.001,0.00,0.10,-272.68,-272.75,-16,15,-2,20.4,8.0,-14.9,20.7,6.2,-17.8,5.73,2.45,-13.5,25.6
2015-02-12 01:20:00,0.0,1.91271,0.00039,402.694,0.022,0.2587,0.0020,140.000,45.000,27641.95774,1.91761,403.954,32.750,45.069,45.001,0.00,0.10,-272.69,-272.75,-15,15,-2,20.4,8.0,-14.9,20.7,6.2,-17.8,5.73,2.42,-13.5,25.6
2015-02-12 01:21:00,0.0,1.91262,0.00038,402.673,0.037,0.2598,0.0017,139.999,45.000,27643.14860,1.91755,403.941,32.784,45.069,45.001,0.00,0.10,-272.68,-272.74,-16,15,-2,20.5,8.0,-14.9,20.7,6.2,-17.8,5.73,2.39,-13.5,25.7
2015-02-12 01:22:00,0.0,1.91243,0.00031,402.681,0.031,0.2597,0.0020,140.001,45.000,27644.60187,1.91735,403.946,32.814,45.069,45.001,0.00,0.10,-272.68,-272.75,-16,15,-2,20.5,8.0,-15.0,20.7,6.2,-17.8,5.73,2.38,-13.5,25.7
2015-02-12 01:23:00,0.0,1.91260,0.00036,402.667,0.028,0.2615,0.0018,140.001,45.001,27646.44270,1.91755,403.942,32.856,45.068,45.001,0.00,0.10,-272.69,-272.75,-15,15,-2,20.5,8.0,-14.8,20.8,6.2,-17.8,5.73,2.40,-13.5,25.7
2015-02-12 01:24:00,0.0,1.91256,0.00035,402.668,0.032,0.2590,0.0028,139.998,45.000,27644.32545,1.91745,403.931,32.866,45.068,45.000,0.00,0.10,-272.69,-272.74,-16,15,-2,20.4,8.0,-15.0,20.7,6.2,-17.8,5.73,2.42,-13.5,25.8
2015-02-12 01:25:00,0.0,1.91237,0.00040,402.652,0.039,0.2601,0.0022,140.000,45.000,27646.85185,1.91731,403.920,32.874,45.068,45.000,0.00,0.10,-272.69,-272.75,-15,15,-2,20.4,8.0,-14.9,20.7,6.2,-17.8,5.73,2.43,-13.5,25.8
2015-02-12 01:26:00,0.0,1.91224,0.00030,402.623,0.027,0.2620,0.0024,140.001,45.000,27648.43061,1.91722,403.900,32.876,45.067,45.000,0.00,0.10,-272.69,-272.75,-15,15,-2,20.4,8.1,-14.8,20.7,6.2,-17.8,5.73,2.45,-13.5,25.8
2015-02-12 01:27:00,0.0,1.91224,0.00032,402.673,0.032,0.2612,0.0027,140.000,45.000,27647.75607,1.91718,403.946,32.876,45.067,44.999,0.00,0.10,-272.69,-272.75,-15,15,-2,20.3,8.2,-14.8,20.7,6.2,-17.8,5.73,2.44,-13.5,25.8
2015-02-12 01:28:00,0.0,1.91229,0.00029,402.643,0.026,0.2641,0.0028,139.999,45.000,27646.72020,1.91728,403.930,32.870,45.067,45.000,0.00,0.10,-272.68,-272.74,-15,14,-2,20.3,8.2,-14.7,20.7,6.2,-17.8,5.73,2.44,-13.5,25.8
2015-02-12 01:29:00,0.0,1.91233,0.00040,402.644,0.030,0.2642,0.0016,140.002,45.000,27646.82902,1.91733,403.933,32.860,45.067,44.999,0.00,0.10,-272.69,-272.74,-15,14,-2,20.2,8.2,-14.7,20.6,6.2,-17.8,5.73,2.44,-13.5,25.7
2015-02-12 01:30:00,0.0,1.91218,0.00040,402.639,0.026,0.2620,0.0020,139.997,45.000,27645.59137,1.91715,403.916,32.822,45.067,45.000,0.00,0.10,-272.69,-272.75,-15,15,-2,20.2,8.2,-14.8,20.6,6.2,-17.8,5.73,2.42,-13.5,25.7
2015-02-12 01:31:00,0.0,1.91234,0.00047,402.641,0.029,0.2639,0.0020,140.000,45.000,27645.58971,1.91738,403.927,32.817,45.068,45.000,0.00,0.10,-272.68,-272.75,-15,15,-2,20.3,8.2,-14.7,20.6,6.2,-17.8,5.73,2.42,-13.5,25.7
2015-02-12 01:32:00,0.0,1.91243,0.00031,402.675,0.028,0.2632,0.0019,140.001,45.000,27642.36452,1.91739,403.958,32.809,45.068,45.000,0.00,0.30,-271.02,-272.08,-16,15,-2,20.2,8.2,-14.7,20.6,6.2,-17.8,5.42,2.41,-15.8,25.6
2015-02-12 01:33:00,0.0,1.91276,0.00039,402.718,0.037,0.2623,0.0023,139.997,45.000,27638.42889,1.91770,403.997,32.807,45.068,45.000,0.00,0.10,-272.69,-272.75,-16,15,-2,20.3,8.2,-14.8,20.6,6.2,-17.8,5.73,2.41,-13.5,25.6
2015-02-12 01:34:00,0.0,1.91269,0.00042,402.719,0.024,0.2623,0.0018,140.002,45.000,27637.45501,1.91767,403.998,32.769,45.067,44.999,0.00,0.10,-272.68,-272.74,-15,15,-2,20.3,8.2,-14.8,20.6,6.2,-17.8,5.73,2.41,-13.5,25.6
2015-02-12 01:35:00,0.0,1.91296,0.00024,402.718,0.044,0.2623,0.0020,140.000,45.000,27634.33012,1.91794,403.998,32.747,45.068,45.000,0.00,0.10,-272.68,-272.74,-15,15,-2,20.2,8.2,-14.8,20.6,6.2,-17.8,5.73,2.41,-13.5,25.6
2015-02-12 01:36:00,0.0,1.91298,0.00043,402.727,0.028,0.2629,0.0023,140.001,45.000,27634.47785,1.91795,404.008,32.695,45.068,45.000,0.00,0.10,-272.69,-272.75,-16,14,-2,20.2,8.3,-14.7,20.5,6.2,-17.8,5.73,2.40,-13.5,25.5
2015-02-12 01:37:00,0.0,1.91281,0.00044,402.726,0.030,0.2664,0.0037,140.000,45.000,27635.34947,1.91789,404.025,32.688,45.068,45.000,0.00,0.10,-272.69,-272.75,-15,15,-2,20.1,8.4,-14.6,20.5,6.2,-17.8,5.73,2.41,-13.5,25.5
2015-02-12 01:38:00,0.0,1.91287,0.00041,402.772,0.035,0.2664,0.0020,139.997,45.000,27636.32204,1.91789,404.071,32.687,45.068,45.000,0.00,0.10,-272.68,-272.74,-15,15,-2,20.2,8.3,-14.6,20.5,6.3,-17.8,5.73,2.41,-13.5,25.5
2015-02-12 01:39:00,0.0,1.91287,0.00026,402.790,0.031,0.2661,0.0023,139.999,45.000,27637.26758,1.91793,404.089,32.688,45.068,45.000,0.00,0.10,-272.69,-272.75,-15,15,-2,20.2,8.4,-14.6,20.5,6.2,-17.8,5.73,2.44,-13.5,25.5
2015-02-12 01:40:00,0.0,1.91307,0.00030,402.792,0.030,0.2669,0.0022,140.001,45.000,27639.18691,1.91812,404.092,32.688,45.068,45.000,0.00,0.10,-272.69,-272.75,-15,15,-2,20.2,8.3,-14.6,20.5,6.2,-17.8,5.73,2.46,-13.5,25.5
2015-02-12 01:41:00,0.0,1.91304,0.00045,402.793,0.033,0.2693,0.0024,140.001,45.000,27639.29201,1.91816,404.108,32.706,45.068,45.000,0.00,0.10,-272.69,-272.75,-15,15,-2,20.2,8.4,-14.5,20.6,6.3,-17.8,5.73,2.45,-13.5,25.6
2015-02-12 01:42:00,0.0,1.91291,0.00037,402.791,0.030,0.2677,0.0016,140.002,45.000,27641.80437,1.91797,404.098,32.750,45.068,45.000,0.00,0.10,-272.68,-272.74,-15,15,-2,20.3,8.4,-14.5,20.6,6.2,-17.8,5.73,2.42,-13.5,25.6
2015-02-12 01:43:00,0.0,1.91307,0.00034,402.770,0.026,0.2693,0.0017,140.000,45.000,27640.19036,1.91819,404.083,32.787,45.068,45.000,0.00,0.10,-272.69,-272.75,-16,15,-2,20.3,8.4,-14.5,20.6,6.2,-17.8,5.73,2.38,-13.5,25.7
2015-02-12 01:44:00,0.0,1.91287,0.00043,402.763,0.033,0.2717,0.0024,140.002,45.000,27641.95928,1.91800,404.088,32.814,45.068,45.000,0.00,0.10,-272.69,-272.75,-16,15,-2,20.3,8.4,-14.4,20.6,6.3,-17.7,5.73,2.37,-13.5,25.7
2015-02-12 01:45:00,0.0,1.91271,0.00050,402.738,0.035,0.2719,0.0015,139.999,45.001,27641.38001,1.91789,404.066,32.861,45.068,45.000,0.00,0.10,-272.69,-272.74,-16,15,-2,20.4,8.4,-14.4,20.6,6.2,-17.8,5.73,2.40,-13.5,25.7
2015-02-12 01:46:00,0.0,1.91260,0.00033,402.753,0.033,0.2713,0.0025,139.998,45.000,27642.82701,1.91773,404.076,32.876,45.068,45.000,0.00,0.10,-272.69,-272.74,-16,15,-2,20.4,8.4,-14.4,20.7,6.2,-17.8,5.73,2.45,-13.5,25.8